Terug naar catalogus

ATLAS 5 CENTAUR DEB

ActiefHEO
NORAD 44680·DEBRIS·🇺🇸 United States

Gelanceerd Oct 17, 2018 vanaf Cape Canaveral Space Force Station

Loading…

Volgende Passages (komende 24 uur)

TLE

VersSource: Space-Track

Epoch: Sep 13, 2026, 12:02 UTC

1 44680U 18079AS  26256.50188779 -.00000161  00000-0  00000+0 0  9991
2 44680  13.4302  41.9477 4691822 297.1414  22.9759  1.75587513 47017

Volg ATLAS 5 CENTAUR DEB in realtime met AllMySat

Download on the App Store